Volver al catálogo

BRO-18

ActivoCienciaSSO
NORAD 64550·PAYLOAD·🇫🇷 France

Lanzado Jun 23, 2025 desde Vandenberg Space Force Base

Loading…

Próximos Pases (próximas 24 horas)

TLE

ActualizadoSource: Space-Track

Época: Sep 14, 2026, 13:58 UTC

1 64550U 25135Y   26257.58245855  .00002921  00000-0  12887-3 0  9993
2 64550  97.4704  11.9862 0000614  67.5862 292.5439 15.22565731 68471

Sigue BRO-18 en tiempo real con AllMySat

Download on the App Store